Location: *
(37.5724°S, 58.0067°E)
Time: 11:41:24
(UTC+00:00)

Cosmos 1934 Rocket - Pass Details

Date: 26 September 2020
Orbit: 938 x 999 km, 83.0° (Epoch: 29 October)

Event Time Altitude Azimuth Distance (km) Brightness Sun altitude
Exits shadow 23:39:28 49° 342° (NNW) 1,250 4.2 -25.8°
Maximum altitude 23:41:18 81° 263° (W) 1,011 3.9 -25.4°
Drops below altitude 10° 23:47:44 10° 176° (S) 2,788 6.7 -24.3°
Sets 23:50:18 0° 174° (S) 3,749 7.4 -23.8°
